TimeEDT,TemperatureF,Dew PointF,Humidity,Sea Level PressureIn,VisibilityMPH,Wind Direction,Wind SpeedMPH,Gust SpeedMPH,PrecipitationIn,Events,Conditions,WindDirDegrees,DateUTC
12:54 AM,51.3,46.8,85,30.00,10.0,East,13.8,18.4,N/A,,Overcast,80,2012-10-23 04:54:00
1:14 AM,51.3,46.8,85,30.00,10.0,ENE,11.5,19.6,N/A,,Overcast,70,2012-10-23 05:14:00
1:33 AM,51.3,46.9,85,30.01,10.0,East,10.4,-,N/A,,Overcast,90,2012-10-23 05:33:00
1:54 AM,51.8,46.9,83,30.01,10.0,East,11.5,16.1,N/A,,Overcast,90,2012-10-23 05:54:00
2:54 AM,50.9,47.3,87,30.00,10.0,East,12.7,17.3,N/A,,Overcast,80,2012-10-23 06:54:00
3:54 AM,50.4,47.5,90,30.00,10.0,East,11.5,19.6,N/A,,Scattered Clouds,80,2012-10-23 07:54:00
4:14 AM,50.4,47.5,90,30.01,10.0,East,8.1,16.1,N/A,,Mostly Cloudy,80,2012-10-23 08:14:00
4:34 AM,51.3,46.9,85,30.01,10.0,East,11.5,19.6,N/A,,Overcast,80,2012-10-23 08:34:00
4:54 AM,51.1,46.8,85,30.01,10.0,ENE,11.5,17.3,N/A,,Overcast,70,2012-10-23 08:54:00
5:13 AM,50.9,46.6,85,30.01,10.0,ENE,10.4,16.1,N/A,,Overcast,60,2012-10-23 09:13:00
6:13 AM,50.0,45.9,86,30.02,10.0,East,11.5,-,N/A,,Overcast,80,2012-10-23 10:13:00
6:34 AM,50.4,45.5,83,30.03,10.0,East,11.5,-,N/A,,Overcast,80,2012-10-23 10:34:00
6:53 AM,50.2,45.5,84,30.03,10.0,East,12.7,17.3,N/A,,Overcast,80,2012-10-23 10:53:00
7:34 AM,50.0,45.5,85,30.03,10.0,East,12.7,21.9,N/A,,Overcast,80,2012-10-23 11:34:00
7:53 AM,50.0,45.5,85,30.03,10.0,East,10.4,17.3,N/A,,Overcast,90,2012-10-23 11:53:00
8:34 AM,49.8,46.2,87,30.03,10.0,East,10.4,19.6,N/A,,Overcast,80,2012-10-23 12:34:00
8:53 AM,49.6,46.0,87,30.04,10.0,East,9.2,19.6,N/A,,Overcast,80,2012-10-23 12:53:00
9:14 AM,50.0,45.9,86,30.04,10.0,East,12.7,19.6,N/A,,Overcast,90,2012-10-23 13:14:00
9:33 AM,50.0,45.7,85,30.04,10.0,East,9.2,21.9,N/A,,Overcast,80,2012-10-23 13:33:00
10:14 AM,50.2,45.5,84,30.02,10.0,East,12.7,20.7,N/A,,Overcast,80,2012-10-23 14:14:00
10:54 AM,51.4,45.5,80,30.02,10.0,East,13.8,27.6,N/A,,Overcast,80,2012-10-23 14:54:00
11:14 AM,52.5,44.8,75,30.04,10.0,East,12.7,19.6,N/A,,Overcast,90,2012-10-23 15:14:00
11:54 AM,51.8,44.6,76,30.04,10.0,East,13.8,19.6,N/A,,Overcast,90,2012-10-23 15:54:00
12:14 PM,51.8,44.6,76,30.04,10.0,East,17.3,23.0,N/A,,Overcast,90,2012-10-23 16:14:00
12:33 PM,51.6,44.2,76,30.04,10.0,East,13.8,21.9,N/A,,Overcast,90,2012-10-23 16:33:00
12:54 PM,51.3,44.1,76,30.05,10.0,East,13.8,23.0,N/A,,Overcast,90,2012-10-23 16:54:00
1:14 PM,51.3,44.6,78,30.05,10.0,East,12.7,21.9,N/A,,Overcast,90,2012-10-23 17:14:00
1:33 PM,51.3,44.8,78,30.05,10.0,East,13.8,23.0,N/A,,Overcast,90,2012-10-23 17:33:00
1:54 PM,50.9,45.0,80,30.04,10.0,East,10.4,21.9,N/A,,Overcast,90,2012-10-23 17:54:00
2:14 PM,50.7,45.5,82,30.02,10.0,East,15.0,21.9,N/A,,Overcast,90,2012-10-23 18:14:00
2:33 PM,50.9,45.5,82,30.02,10.0,East,11.5,21.9,N/A,,Overcast,100,2012-10-23 18:33:00
2:54 PM,50.9,45.7,82,30.02,10.0,East,12.7,20.7,N/A,,Overcast,90,2012-10-23 18:54:00
3:14 PM,50.9,45.5,82,30.02,10.0,East,11.5,20.7,N/A,,Overcast,100,2012-10-23 19:14:00
3:33 PM,50.9,45.7,82,30.02,10.0,ESE,9.2,19.6,N/A,,Overcast,110,2012-10-23 19:33:00
3:54 PM,51.3,45.7,81,30.01,10.0,ESE,13.8,23.0,N/A,,Overcast,110,2012-10-23 19:54:00
4:14 PM,51.1,45.5,81,30.02,10.0,ESE,13.8,21.9,N/A,,Overcast,110,2012-10-23 20:14:00
4:33 PM,51.1,45.5,81,30.03,10.0,ESE,13.8,21.9,N/A,,Overcast,110,2012-10-23 20:33:00
5:33 PM,50.2,45.5,84,30.03,10.0,ESE,15.0,24.2,N/A,,Overcast,110,2012-10-23 21:33:00
5:54 PM,49.3,46.4,90,30.02,10.0,ESE,13.8,24.2,N/A,,Overcast,110,2012-10-23 21:54:00
6:14 PM,48.7,46.6,92,30.02,7.0,ESE,13.8,23.0,N/A,,Overcast,110,2012-10-23 22:14:00
6:33 PM,48.7,46.8,93,30.03,7.0,ESE,12.7,24.2,N/A,,Overcast,110,2012-10-23 22:33:00
6:54 PM,48.7,46.8,93,30.03,10.0,ESE,15.0,20.7,N/A,,Overcast,110,2012-10-23 22:54:00
7:33 PM,49.3,45.9,88,30.03,10.0,ESE,13.8,24.2,N/A,,Overcast,110,2012-10-23 23:33:00
7:54 PM,49.5,45.7,87,30.03,10.0,ESE,13.8,25.3,N/A,,Overcast,110,2012-10-23 23:54:00
8:13 PM,49.5,45.5,86,30.03,10.0,ESE,18.4,25.3,N/A,,Overcast,110,2012-10-24 00:13:00
8:34 PM,49.5,45.1,85,30.03,10.0,ESE,13.8,24.2,N/A,,Overcast,110,2012-10-24 00:34:00
8:54 PM,49.5,45.0,84,30.03,10.0,ESE,12.7,23.0,N/A,,Overcast,110,2012-10-24 00:54:00
9:13 PM,49.5,44.6,83,30.04,10.0,ESE,15.0,27.6,N/A,,Overcast,110,2012-10-24 01:13:00
9:34 PM,49.5,44.6,83,30.04,10.0,East,15.0,26.5,N/A,,Overcast,100,2012-10-24 01:34:00
9:54 PM,49.5,44.2,82,30.05,10.0,ESE,13.8,25.3,N/A,,Overcast,110,2012-10-24 01:54:00
10:13 PM,49.5,44.4,83,30.04,10.0,ESE,13.8,25.3,N/A,,Overcast,110,2012-10-24 02:13:00
10:34 PM,49.1,44.6,84,30.04,10.0,East,15.0,23.0,N/A,,Overcast,100,2012-10-24 02:34:00
10:54 PM,49.1,44.8,85,30.04,10.0,ESE,17.3,25.3,N/A,,Overcast,110,2012-10-24 02:54:00
11:13 PM,49.1,45.0,86,30.03,10.0,ESE,15.0,24.2,N/A,,Overcast,110,2012-10-24 03:13:00
11:54 PM,48.7,45.0,87,30.03,10.0,East,16.1,25.3,N/A,,Overcast,100,2012-10-24 03:54:00